TCHAT MMTG-MMTG

Flight info

Callsign TCHAT
Flight time 0h 32m
Altitude 8500
Route DEPARTURE TO SOUTH // SHORT LANDING AT UNION Y PROGRESSO STADIUM // SHORT LANDING AT BENITO JUAREZ STADIUM // SHORT LANDING AT IGNACIO ALLENDE STADIUM // SHORT LANDING AT ESTADIO MUNICIPAL // DCT MMTG
Aircraft UH1/L-ICAO/L

Departure

Time 2026-04-26 18:09
Airport Angel Albino Corzo International Airport (MMTG)

Arrival

Time 2026-04-26 18:41
Airport Angel Albino Corzo International Airport (MMTG)
Time Latitude Longitude Altitude Speed Heading
2026-04-26 17:35 16.56493 -93.02250 1512 ft 0 kts 360°
2026-04-26 18:04 16.56495 -93.02250 1512 ft 1 kts 328°
2026-04-26 18:04 16.56511 -93.02269 1509 ft 14 kts 234°
2026-04-26 18:05 16.56498 -93.02258 1542 ft 8 kts 281°
2026-04-26 18:05 16.56459 -93.02338 1531 ft 13 kts 220°
2026-04-26 18:05 16.56414 -93.02387 1524 ft 13 kts 190°
2026-04-26 18:05 16.56328 -93.02376 1533 ft 15 kts 122°
2026-04-26 18:06 16.56307 -93.02381 1528 ft 11 kts 220°
2026-04-26 18:06 16.56253 -93.02343 1521 ft 23 kts 105°
2026-04-26 18:06 16.56060 -93.02232 1529 ft 27 kts 200°
2026-04-26 18:06 16.56146 -93.02520 1525 ft 32 kts 285°
2026-04-26 18:07 16.56186 -93.02615 1519 ft 17 kts 132°
2026-04-26 18:07 16.56089 -93.02543 1517 ft 14 kts 128°
2026-04-26 18:07 16.55987 -93.02483 1527 ft 41 kts 129°
2026-04-26 18:07 16.55892 -93.02420 1535 ft 54 kts 137°
2026-04-26 18:08 16.55369 -93.02159 1646 ft 66 kts 142°
2026-04-26 18:08 16.54942 -93.01965 1753 ft 66 kts 144°
2026-04-26 18:08 16.54507 -93.01795 1849 ft 67 kts 153°
2026-04-26 18:08 16.54002 -93.01699 1864 ft 83 kts 170°
2026-04-26 18:09 16.53460 -93.01820 1928 ft 78 kts 184°
2026-04-26 18:09 16.52925 -93.01960 2051 ft 82 kts 183°
2026-04-26 18:09 16.52341 -93.02114 2092 ft 96 kts 187°
2026-04-26 18:09 16.51843 -93.02492 2250 ft 88 kts 227°
2026-04-26 18:10 16.51604 -93.03086 2389 ft 92 kts 253°
2026-04-26 18:10 16.51558 -93.03743 2624 ft 88 kts 261°
2026-04-26 18:10 16.51420 -93.04322 2843 ft 80 kts 236°
2026-04-26 18:10 16.51091 -93.04799 2931 ft 80 kts 224°
2026-04-26 18:11 16.50786 -93.05266 3017 ft 76 kts 232°
2026-04-26 18:11 16.50519 -93.05802 3278 ft 90 kts 241°
2026-04-26 18:11 16.50292 -93.06411 3486 ft 92 kts 237°
2026-04-26 18:11 16.50199 -93.07125 3468 ft 100 kts 263°
2026-04-26 18:12 16.50315 -93.07857 3461 ft 104 kts 275°
2026-04-26 18:12 16.50440 -93.08575 3465 ft 101 kts 269°
2026-04-26 18:12 16.50527 -93.09316 3522 ft 101 kts 267°
2026-04-26 18:12 16.50600 -93.10030 3499 ft 99 kts 268°
2026-04-26 18:13 16.50686 -93.10730 3544 ft 96 kts 271°
2026-04-26 18:13 16.50816 -93.11421 3573 ft 96 kts 269°
2026-04-26 18:13 16.50899 -93.12094 3613 ft 92 kts 272°
2026-04-26 18:13 16.51001 -93.12535 3628 ft 93 kts 276°
2026-04-26 18:14 16.51197 -93.13379 3658 ft 92 kts 269°
2026-04-26 18:14 16.51270 -93.14048 3677 ft 94 kts 267°
2026-04-26 18:14 16.51339 -93.14717 3726 ft 90 kts 266°
2026-04-26 18:14 16.51420 -93.15374 3718 ft 91 kts 266°
2026-04-26 18:15 16.51472 -93.16019 3728 ft 87 kts 264°
2026-04-26 18:15 16.51522 -93.16602 3672 ft 78 kts 271°
2026-04-26 18:15 16.51557 -93.17143 3748 ft 75 kts 259°
2026-04-26 18:15 16.51545 -93.17715 3669 ft 77 kts 257°
2026-04-26 18:16 16.51579 -93.18261 3709 ft 77 kts 264°
2026-04-26 18:16 16.51365 -93.19338 3780 ft 83 kts 245°
2026-04-26 18:16 16.51135 -93.19974 3798 ft 96 kts 238°
2026-04-26 18:17 16.50913 -93.20637 3839 ft 96 kts 241°
2026-04-26 18:17 16.50747 -93.21267 3771 ft 79 kts 239°
2026-04-26 18:17 16.50552 -93.21787 3806 ft 77 kts 237°
2026-04-26 18:17 16.50361 -93.22312 3876 ft 80 kts 239°
2026-04-26 18:18 16.50263 -93.22914 3871 ft 91 kts 272°
2026-04-26 18:18 16.50617 -93.23461 3795 ft 92 kts 304°
2026-04-26 18:18 16.51091 -93.23916 3704 ft 92 kts 311°
2026-04-26 18:18 16.51495 -93.24495 3662 ft 110 kts 289°
2026-04-26 18:19 16.51764 -93.25226 3537 ft 101 kts 266°
2026-04-26 18:19 16.51747 -93.25858 3465 ft 79 kts 245°
2026-04-26 18:19 16.51615 -93.26409 3344 ft 80 kts 245°
2026-04-26 18:19 16.51531 -93.27038 3141 ft 96 kts 254°
2026-04-26 18:20 16.51362 -93.27757 3142 ft 106 kts 240°
2026-04-26 18:20 16.51078 -93.28480 3099 ft 110 kts 234°
2026-04-26 18:20 16.50726 -93.29170 3032 ft 106 kts 229°
2026-04-26 18:20 16.50470 -93.29599 3003 ft 105 kts 229°
2026-04-26 18:21 16.49901 -93.30351 2958 ft 98 kts 221°
2026-04-26 18:21 16.49493 -93.30921 2863 ft 99 kts 220°
2026-04-26 18:21 16.49057 -93.31448 2653 ft 95 kts 216°
2026-04-26 18:21 16.48645 -93.31968 2448 ft 88 kts 218°
2026-04-26 18:22 16.48277 -93.32378 2317 ft 72 kts 210°
2026-04-26 18:22 16.47908 -93.32701 2188 ft 66 kts 204°
2026-04-26 18:22 16.47573 -93.32941 2028 ft 50 kts 196°
2026-04-26 18:22 16.47317 -93.33085 1960 ft 36 kts 167°
2026-04-26 18:23 16.47224 -93.33070 1847 ft 6 kts 127°
2026-04-26 18:23 16.47222 -93.33058 1833 ft 0 kts 88°
2026-04-26 18:27 16.47230 -93.33048 1836 ft 0 kts 48°
2026-04-26 18:28 16.47251 -93.33013 1859 ft 29 kts 48°
2026-04-26 18:28 16.47489 -93.32780 2016 ft 63 kts 43°
2026-04-26 18:29 16.47894 -93.32420 2173 ft 85 kts 38°
2026-04-26 18:29 16.48370 -93.32023 2299 ft 93 kts 38°
2026-04-26 18:29 16.48884 -93.31579 2423 ft 99 kts 37°
2026-04-26 18:29 16.49367 -93.31078 2636 ft 96 kts 46°
2026-04-26 18:30 16.49822 -93.30567 2824 ft 96 kts 41°
2026-04-26 18:30 16.50214 -93.30035 2960 ft 90 kts 62°
2026-04-26 18:30 16.50472 -93.29425 3084 ft 93 kts 64°
2026-04-26 18:30 16.50758 -93.28812 3127 ft 96 kts 55°
2026-04-26 18:31 16.51052 -93.28195 3149 ft 91 kts 65°
2026-04-26 18:31 16.51301 -93.27590 3180 ft 93 kts 57°
2026-04-26 18:31 16.51673 -93.27033 3219 ft 96 kts 51°
2026-04-26 18:31 16.51962 -93.26406 3228 ft 97 kts 68°
2026-04-26 18:32 16.52085 -93.25750 3157 ft 86 kts 83°
2026-04-26 18:32 16.52067 -93.25131 3267 ft 91 kts 90°
2026-04-26 18:32 16.52022 -93.24438 3405 ft 99 kts 95°
2026-04-26 18:32 16.51939 -93.23719 3544 ft 104 kts 94°
2026-04-26 18:33 16.51876 -93.22987 3639 ft 104 kts 98°
2026-04-26 18:33 16.51794 -93.22208 3684 ft 111 kts 95°
2026-04-26 18:33 16.51689 -93.21404 3728 ft 103 kts 98°
2026-04-26 18:33 16.51561 -93.20682 3801 ft 105 kts 101°
2026-04-26 18:34 16.51481 -93.19936 3862 ft 105 kts 85°
2026-04-26 18:34 16.51450 -93.19159 3957 ft 108 kts 96°
2026-04-26 18:34 16.51373 -93.18392 3962 ft 107 kts 88°
2026-04-26 18:34 16.51440 -93.17638 4077 ft 106 kts 81°
2026-04-26 18:35 16.51517 -93.16868 4096 ft 105 kts 84°
2026-04-26 18:35 16.51521 -93.16121 4127 ft 102 kts 88°
2026-04-26 18:35 16.51587 -93.15394 4130 ft 100 kts 77°
2026-04-26 18:35 16.51694 -93.14668 4152 ft 104 kts 75°
2026-04-26 18:36 16.51794 -93.13917 4155 ft 104 kts 79°
2026-04-26 18:36 16.51881 -93.13188 4152 ft 100 kts 79°
2026-04-26 18:36 16.51968 -93.12489 4212 ft 93 kts 84°
2026-04-26 18:36 16.52042 -93.11821 4272 ft 94 kts 82°
2026-04-26 18:37 16.52114 -93.11368 4247 ft 97 kts 78°
2026-04-26 18:37 16.52269 -93.10414 4111 ft 104 kts 77°
2026-04-26 18:37 16.52394 -93.09668 3923 ft 106 kts 72°
2026-04-26 18:37 16.52518 -93.08917 3724 ft 104 kts 77°
2026-04-26 18:38 16.52587 -93.08185 3556 ft 98 kts 89°
2026-04-26 18:38 16.52561 -93.07520 3413 ft 87 kts 87°
2026-04-26 18:38 16.52530 -93.06906 3261 ft 86 kts 88°
2026-04-26 18:38 16.52463 -93.06261 3075 ft 94 kts 87°
2026-04-26 18:39 16.52377 -93.05584 2803 ft 93 kts 94°
2026-04-26 18:39 16.52218 -93.04909 2565 ft 102 kts 99°
2026-04-26 18:39 16.51988 -93.04180 2390 ft 103 kts 98°
2026-04-26 18:39 16.51751 -93.03475 2294 ft 105 kts 97°
2026-04-26 18:40 16.51508 -93.02748 2144 ft 106 kts 98°
2026-04-26 18:40 16.51369 -93.02037 2055 ft 98 kts 86°
2026-04-26 18:40 16.51340 -93.01329 2017 ft 95 kts 81°
2026-04-26 18:40 16.51461 -93.00668 1961 ft 90 kts 62°
2026-04-26 18:41 16.51743 -93.00080 1881 ft 91 kts 56°
2026-04-26 18:41 16.52030 -92.99510 1858 ft 83 kts 55°
2026-04-26 18:41 16.52371 -92.99177 1755 ft 53 kts
2026-04-26 18:41 16.52661 -92.99275 1622 ft 37 kts 308°
2026-04-26 18:42 16.52679 -92.99490 1627 ft 38 kts 242°
2026-04-26 18:42 16.52483 -92.99683 1658 ft 39 kts 185°
2026-04-26 18:42 16.52214 -92.99649 1661 ft 38 kts 135°
2026-04-26 18:42 16.52106 -92.99469 1609 ft 19 kts 34°
2026-04-26 18:43 16.52223 -92.99421 1482 ft 13 kts 340°
2026-04-26 18:43 16.52265 -92.99426 1449 ft 3 kts 339°
2026-04-26 18:43 16.52266 -92.99426 1448 ft 0 kts 332°
2026-04-26 18:44 16.52381 -92.99463 1550 ft 47 kts 338°
2026-04-26 18:44 16.52771 -92.99718 1713 ft 77 kts 311°
2026-04-26 18:44 16.52975 -93.00280 1862 ft 87 kts 267°
2026-04-26 18:44 16.52864 -93.00900 1939 ft 91 kts 246°
2026-04-26 18:45 16.52598 -93.01533 2049 ft 100 kts 237°
2026-04-26 18:45 16.52287 -93.02195 2238 ft 104 kts 238°
2026-04-26 18:45 16.51986 -93.02887 2372 ft 105 kts 243°
2026-04-26 18:45 16.51719 -93.03599 2519 ft 105 kts 241°
2026-04-26 18:46 16.51509 -93.04331 2703 ft 104 kts 254°
2026-04-26 18:46 16.51422 -93.05054 2909 ft 98 kts 253°
2026-04-26 18:46 16.51287 -93.05733 3167 ft 95 kts 245°
2026-04-26 18:46 16.51154 -93.06350 3359 ft 83 kts 253°
2026-04-26 18:47 16.51088 -93.06980 3559 ft 97 kts 253°
2026-04-26 18:47 16.50936 -93.07729 3495 ft 110 kts 247°
2026-04-26 18:47 16.50758 -93.08492 3475 ft 104 kts 251°
2026-04-26 18:47 16.50611 -93.09227 3533 ft 106 kts 249°
2026-04-26 18:48 16.50472 -93.10027 3592 ft 108 kts 248°
2026-04-26 18:48 16.50336 -93.10762 3666 ft 103 kts 243°
2026-04-26 18:48 16.50140 -93.11466 3709 ft 100 kts 244°
2026-04-26 18:48 16.49941 -93.12132 3779 ft 93 kts 241°
2026-04-26 18:49 16.49777 -93.12807 3836 ft 98 kts 245°
2026-04-26 18:49 16.49637 -93.13500 3880 ft 97 kts 247°
2026-04-26 18:49 16.49492 -93.14175 3843 ft 96 kts 245°
2026-04-26 18:49 16.49311 -93.14843 3839 ft 92 kts 243°
2026-04-26 18:50 16.49090 -93.15499 3871 ft 97 kts 244°
2026-04-26 18:50 16.48839 -93.16146 3923 ft 96 kts 233°
2026-04-26 18:50 16.48608 -93.16797 4011 ft 99 kts 253°
2026-04-26 18:50 16.48550 -93.17539 4064 ft 105 kts 252°
2026-04-26 18:51 16.48480 -93.18262 4138 ft 100 kts 251°
2026-04-26 18:51 16.48355 -93.18975 4135 ft 101 kts 245°
2026-04-26 18:51 16.48138 -93.19625 4202 ft 86 kts 228°
2026-04-26 18:51 16.47887 -93.20134 4347 ft 78 kts 236°
2026-04-26 18:52 16.47739 -93.20697 4362 ft 79 kts 243°
2026-04-26 18:52 16.47542 -93.21240 4308 ft 83 kts 232°
2026-04-26 18:52 16.47334 -93.21808 4284 ft 86 kts 254°
2026-04-26 18:52 16.47179 -93.22449 4393 ft 99 kts 245°
2026-04-26 18:53 16.47012 -93.23153 4402 ft 102 kts 246°
2026-04-26 18:53 16.46731 -93.23849 4477 ft 105 kts 233°
2026-04-26 18:53 16.46338 -93.24478 4479 ft 102 kts 224°
2026-04-26 18:53 16.45912 -93.25069 4394 ft 103 kts 224°
2026-04-26 18:54 16.45528 -93.25680 4339 ft 99 kts 228°
2026-04-26 18:54 16.45118 -93.26283 4147 ft 103 kts 219°
2026-04-26 18:54 16.44725 -93.26877 4025 ft 98 kts 229°
2026-04-26 18:54 16.44374 -93.27441 4022 ft 92 kts 230°
2026-04-26 18:55 16.44067 -93.28027 3894 ft 90 kts 227°
2026-04-26 18:55 16.43826 -93.28641 3696 ft 100 kts 240°
2026-04-26 18:55 16.43662 -93.29305 3402 ft 94 kts 237°
2026-04-26 18:55 16.43520 -93.30005 3143 ft 103 kts 244°
2026-04-26 18:56 16.43342 -93.30700 2817 ft 89 kts 229°
2026-04-26 18:56 16.43032 -93.31187 2438 ft 73 kts 206°
2026-04-26 18:56 16.42645 -93.31398 2304 ft 53 kts 172°
2026-04-26 18:56 16.42384 -93.31310 2201 ft 27 kts 96°
2026-04-26 18:57 16.42489 -93.31219 2117 ft 24 kts 310°
2026-04-26 18:57 16.42559 -93.31274 2056 ft 14 kts 298°
2026-04-26 18:57 16.42581 -93.31294 2030 ft 1 kts 269°
2026-04-26 18:58 16.42583 -93.31300 2031 ft 7 kts 277°
2026-04-26 18:58 16.42700 -93.31560 2160 ft 63 kts 295°
2026-04-26 18:58 16.43120 -93.31865 2409 ft 85 kts 328°
2026-04-26 18:58 16.43798 -93.32034 2478 ft 101 kts 346°
2026-04-26 18:59 16.44436 -93.32336 2378 ft 97 kts 303°
2026-04-26 18:59 16.44664 -93.32845 2212 ft 71 kts 255°
2026-04-26 18:59 16.44524 -93.33178 2147 ft 39 kts 149°
2026-04-26 18:59 16.44387 -93.33054 2029 ft 18 kts 37°
2026-04-26 19:00 16.44434 -93.33010 1963 ft 2 kts 39°
2026-04-26 19:00 16.44435 -93.33009 1962 ft 0 kts 28°
2026-04-26 19:01 16.44447 -93.33003 1990 ft 16 kts 56°
2026-04-26 19:01 16.44842 -93.32865 2170 ft 89 kts 14°
2026-04-26 19:01 16.45516 -93.32726 2384 ft 104 kts
2026-04-26 19:02 16.46261 -93.32622 2509 ft 109 kts
2026-04-26 19:02 16.47003 -93.32435 2637 ft 112 kts 22°
2026-04-26 19:02 16.47754 -93.32143 2583 ft 118 kts 11°
2026-04-26 19:02 16.48270 -93.32010 2400 ft 112 kts
2026-04-26 19:03 16.48808 -93.31572 2060 ft 47 kts 123°
2026-04-26 19:03 16.48601 -93.31435 1918 ft 22 kts 137°
2026-04-26 19:03 16.48549 -93.31395 1877 ft 1 kts 117°
2026-04-26 19:03 16.48574 -93.31320 1890 ft 36 kts 52°
2026-04-26 19:04 16.48879 -93.31025 1933 ft 77 kts 41°
2026-04-26 19:04 16.49275 -93.30598 2105 ft 83 kts 60°
2026-04-26 19:04 16.49716 -93.30113 2235 ft 106 kts 36°
2026-04-26 19:04 16.50279 -93.29576 2296 ft 109 kts 48°
2026-04-26 19:05 16.50888 -93.28277 2473 ft 92 kts 63°
2026-04-26 19:05 16.51136 -93.27694 2190 ft 85 kts 60°
2026-04-26 19:05 16.51385 -93.27140 2004 ft 75 kts 51°
2026-04-26 19:06 16.51529 -93.26873 1953 ft 27 kts 50°
2026-04-26 19:06 16.51576 -93.26790 1894 ft 2 kts 64°
2026-04-26 19:06 16.51582 -93.26783 1899 ft 5 kts 54°
2026-04-26 19:06 16.51613 -93.26743 1901 ft 3 kts 49°
2026-04-26 19:07 16.51614 -93.26740 1890 ft 0 kts 25°